Temp
18 18 18 19 19 19 19 19 19 18 18 18 18 18 19 19 19 19 20 20 20 21 21 22 23 23 23 23 23 23 23 24 23 22 19 17 18 20 20 20 21 23 23 24 24 26 26 26 26 26 26 25 24 24 24 24 24 24 22 19 18 18 18 19 19 18 17 16 16 17 18 17 15 16 15 16 17 16 16 15 15 15 15 15 14 14 13 13
19 19 19 19 19 19 19 19 19 19 18 18 19 18 19 19 19 20 20 20 20 21 22 22 23 23 23 23 24 24 24 24 23 20 19 19 20 21 21 21 22 23 24 23 24 26 27 26 27 26 25 24 24 24 23 23 23 22 20 18 17 17 18 19 19 19 18 17 17 17 18 17 16 16 16 16 16 16 16 15 15 15 14 14 14 14 13 13
19 19 19 19 19 19 19 19 19 19 19 19 19 19 19 19 20 20 20 20 21 21 22 22 23 23 23 23 24 24 24 24 22 20 20 21 21 21 22 22 22 23 23 23 24 25 26 27 27 26 24 23 22 23 22 22 22 21 19 17 16 17 18 19 19 19 18 18 17 17 17 17 17 17 16 16 17 16 16 15 15 15 14 14 14 14 14 13
19 19 19 19 19 19 19 19 19 19 19 19 19 19 19 19 20 20 20 21 21 22 22 22 23 23 23 23 24 24 24 23 21 20 20 21 22 22 22 23 23 23 23 23 24 25 26 27 27 26 24 22 22 22 20 20 21 20 19 17 17 18 17 18 18 19 19 18 18 17 17 17 17 17 17 17 17 17 17 17 16 16 15 14 14 14 14 14
19 19 19 19 19 19 19 19 19 19 19 19 19 19 20 20 20 20 21 21 21 22 22 22 22 23 23 24 24 24 24 23 21 19 20 21 22 22 23 23 23 23 24 24 24 25 26 27 26 25 24 22 22 22 20 20 20 19 19 19 18 18 16 17 17 17 18 19 18 18 17 17 17 17 17 18 17 17 18 18 18 17 16 15 15 14 14 14
19 19 19 19 19 19 19 19 19 19 20 20 20 20 20 20 20 21 21 21 22 22 22 23 23 24 24 24 25 24 23 22 19 19 20 21 22 22 23 23 24 24 24 24 25 26 26 26 25 23 22 21 21 21 21 21 20 18 18 19 18 17 17 17 16 16 18 18 18 17 17 17 17 17 17 17 17 17 17 18 18 18 17 16 15 15 14 14
20 19 19 19 19 19 19 19 20 20 20 20 20 20 20 21 21 21 21 22 22 22 23 23 24 24 24 24 24 23 21 20 18 18 19 21 22 22 23 23 24 24 24 24 26 27 26 25 24 23 22 21 20 20 20 20 20 18 17 17 17 17 16 16 16 16 17 17 17 17 17 18 17 17 17 17 17 17 17 17 17 17 17 17 16 15 15 15
20 20 20 19 20 20 20 20 20 20 20 20 20 20 21 21 21 21 21 22 22 23 23 23 24 24 24 24 24 21 19 18 18 18 20 21 22 23 22 23 23 24 24 24 25 25 25 25 24 23 22 21 21 20 20 20 18 17 17 17 17 16 16 16 16 16 17 17 17 17 17 17 17 16 16 17 18 16 16 17 16 17 17 17 16 16 15 15
20 20 20 20 20 20 20 20 20 20 20 20 20 21 21 21 21 21 21 22 22 23 23 23 24 24 24 24 24 21 18 17 17 18 20 21 21 23 22 23 23 24 24 24 25 25 25 25 24 23 22 21 21 21 21 20 18 17 17 17 17 16 16 16 17 16 17 17 16 17 18 17 16 16 16 18 18 16 16 16 16 16 16 16 16 16 16 16
20 20 20 20 20 20 20 20 20 20 20 20 20 21 21 21 21 21 22 22 22 23 23 23 24 24 24 24 23 21 18 17 18 18 19 19 21 23 23 22 23 24 23 23 24 24 24 24 23 23 22 21 20 19 20 19 18 18 17 17 17 16 17 17 17 16 17 17 16 17 18 17 16 16 17 18 18 16 16 16 16 16 16 16 16 16 16 16
19 20 20 20 20 20 20 21 21 20 20 21 20 21 21 22 22 22 22 22 23 23 23 23 24 24 24 22 21 19 18 18 18 18 19 19 20 22 22 22 23 24 23 22 22 23 23 23 23 23 22 20 19 18 18 19 18 18 18 17 17 17 17 17 17 17 17 16 16 16 17 17 16 16 18 18 17 16 16 16 16 16 16 16 16 16 16 16
19 20 20 20 20 20 21 21 21 21 21 21 21 21 21 22 22 22 22 22 23 23 23 23 24 25 23 20 18 18 18 18 18 18 19 19 20 20 21 22 23 23 22 21 21 22 23 23 24 23 22 20 19 18 18 19 19 18 18 17 17 18 17 17 18 17 17 16 16 16 17 18 17 17 18 18 17 17 17 17 16 16 16 17 16 16 16 17
19 19 20 20 20 21 21 21 21 21 21 21 21 21 22 22 22 22 22 22 22 22 23 24 24 25 23 19 17 18 18 18 18 19 19 20 20 20 21 22 22 22 22 22 21 22 23 23 23 22 22 20 19 19 19 19 19 19 20 18 17 18 17 18 18 17 17 16 16 16 18 19 18 18 18 17 17 17 17 17 17 17 17 17 17 16 16 17
19 20 20 20 20 21 21 21 21 21 21 21 21 21 21 21 21 22 22 22 22 22 23 24 24 25 22 18 18 19 18 19 19 19 20 20 20 20 20 21 22 22 22 22 21 22 22 23 22 21 21 19 18 19 19 19 19 19 20 19 20 20 18 18 18 17 17 16 16 17 18 20 19 18 17 17 17 17 17 17 17 17 17 17 17 17 17 17
19 19 19 19 20 20 21 21 21 20 21 20 21 21 21 21 21 22 22 22 22 23 23 23 24 23 19 18 19 19 19 19 19 19 19 20 20 20 20 20 21 21 21 22 22 22 22 22 22 20 19 19 19 20 19 19 19 20 20 20 21 21 18 17 18 17 17 16 17 17 18 20 20 18 17 17 17 17 17 18 18 18 18 18 18 18 17 17
19 19 19 19 20 20 20 20 20 20 20 20 20 21 21 21 21 22 22 22 23 23 23 23 23 22 20 18 19 19 19 18 18 19 19 19 19 19 20 20 21 21 22 22 22 22 22 22 20 20 20 20 21 21 20 20 20 20 20 20 21 21 19 18 17 17 17 17 17 17 18 20 20 18 17 17 17 17 17 18 18 18 18 18 18 18 17 17
19 19 19 19 19 19 19 20 20 20 20 20 21 21 21 21 22 22 22 22 23 23 23 22 22 22 20 18 19 19 18 18 19 20 20 20 19 20 20 21 21 22 22 22 23 22 22 21 19 21 22 21 22 22 21 20 20 21 21 21 21 21 20 19 18 17 17 17 17 17 17 19 20 18 17 17 17 17 17 18 18 19 19 19 19 18 18 18
19 18 19 19 19 19 19 20 20 20 20 20 21 21 21 21 22 22 21 22 23 23 23 22 21 22 20 19 19 18 18 18 19 19 19 20 20 20 20 20 21 21 22 22 23 22 22 21 21 22 21 19 19 20 21 20 20 20 21 21 21 21 21 20 18 17 17 17 18 18 17 19 20 19 17 17 17 17 17 18 18 19 19 19 19 19 18 18
18 19 19 19 19 19 19 20 20 20 20 20 21 21 22 22 22 21 20 20 20 21 21 19 18 20 19 18 17 17 18 18 18 19 19 19 20 20 20 20 20 21 22 23 22 22 22 21 22 21 19 16 16 16 18 18 18 19 20 21 21 21 20 20 18 16 16 17 18 18 19 20 21 20 18 17 17 17 18 18 18 19 19 19 19 19 19 18
18 19 19 19 19 19 19 20 20 20 20 21 21 21 22 22 22 20 17 17 16 16 17 16 16 17 18 17 16 18 18 18 19 18 18 19 19 19 20 20 21 21 21 21 22 21 20 20 18 17 15 15 15 15 15 16 17 19 21 21 22 21 20 19 18 16 16 17 19 20 20 21 21 21 20 18 17 17 18 18 18 19 19 19 19 19 19 19
18 19 19 19 19 19 19 19 20 20 20 21 20 21 21 21 21 19 16 16 16 16 16 15 16 16 16 16 16 17 18 19 19 18 18 19 18 19 21 21 22 22 20 19 21 20 20 20 16 14 14 13 14 14 15 17 18 20 21 21 21 20 19 18 17 17 16 17 20 20 20 21 21 21 20 18 17 17 17 18 18 19 19 19 19 19 19 19
18 19 19 19 19 19 19 19 20 20 21 21 21 21 20 19 20 19 18 17 17 17 17 16 17 16 15 16 16 16 17 19 19 18 18 18 18 20 22 22 22 22 20 19 21 20 19 18 15 13 13 13 14 15 16 17 18 20 21 21 20 20 19 18 17 17 16 17 20 19 18 21 22 21 19 18 18 18 18 19 19 19 19 19 19 19 19 19
18 18 19 19 19 19 19 20 20 21 21 21 21 20 19 19 20 20 20 19 17 18 17 17 17 17 16 17 16 16 18 18 18 18 16 16 19 19 20 21 21 20 20 20 22 22 20 16 13 13 13 13 16 17 17 18 18 19 20 20 20 19 19 19 18 17 17 17 18 18 18 21 22 20 19 19 19 19 19 19 19 19 19 19 19 19 19 19
18 18 19 19 19 20 20 20 21 21 21 21 21 20 19 20 20 20 20 20 19 18 16 16 16 16 17 17 16 17 18 16 16 17 15 15 17 18 19 19 20 19 18 19 20 19 17 13 11 13 13 14 17 17 16 18 19 17 17 18 19 18 17 18 18 18 19 18 17 18 18 21 22 21 20 19 18 19 19 18 18 18 18 18 18 18 18 18
18 18 19 19 19 20 20 20 20 20 20 20 20 19 19 20 20 20 21 21 20 18 17 16 17 17 16 16 17 16 17 16 16 16 14 14 16 18 18 18 19 19 18 18 18 17 15 12 11 13 14 15 17 17 14 15 19 18 15 15 16 16 15 16 18 18 19 19 18 19 19 20 22 22 22 21 19 19 19 18 18 18 18 17 17 18 18 18
18 18 18 19 19 20 20 20 20 19 19 19 18 19 19 20 20 20 22 21 20 19 18 18 18 17 17 17 16 16 18 18 16 15 14 14 14 16 19 18 18 18 17 17 17 16 14 12 12 13 15 16 17 16 13 13 18 20 15 13 13 15 15 16 17 18 19 20 20 20 19 20 21 21 22 22 21 21 20 20 20 20 20 19 18 19 19 19
18 18 19 19 19 20 20 20 20 20 20 19 19 19 19 20 20 20 21 21 20 19 19 18 18 17 17 17 16 17 19 18 16 15 15 15 14 15 19 19 18 17 14 15 18 16 13 13 13 14 15 17 18 17 13 12 17 19 14 11 13 14 15 16 16 17 19 20 20 19 19 19 20 21 23 23 22 22 21 21 21 21 20 20 20 19 19 18
19 19 19 19 19 20 20 20 20 20 20 20 19 19 20 20 20 20 21 20 19 19 18 18 17 17 17 17 16 17 17 16 17 18 15 15 15 16 19 17 17 17 14 17 20 15 12 14 14 14 16 17 16 14 12 11 16 16 12 11 13 13 14 14 15 18 19 19 20 19 18 20 20 21 23 23 22 22 22 21 21 21 20 20 20 19 19 18
19 19 19 19 20 20 20 21 21 20 20 20 20 20 20 20 20 21 21 20 18 18 18 18 17 17 17 17 17 17 16 16 18 18 16 16 16 17 18 16 16 16 14 16 18 14 11 12 11 12 15 15 13 12 10 11 14 13 11 12 12 12 14 14 15 18 19 19 20 19 18 19 20 20 22 22 21 21 21 22 21 21 20 19 19 19 18 18
19 19 19 19 20 20 20 20 20 21 21 20 20 20 19 20 20 21 20 20 19 18 18 17 17 17 18 18 18 18 17 17 16 17 17 17 17 16 16 16 16 17 15 14 14 12 11 10 10 11 12 12 11 11 10 10 11 11 11 13 14 14 15 16 16 18 19 20 19 18 17 19 20 20 21 21 21 21 21 21 21 20 20 19 18 18 17 17
19 19 19 19 19 19 20 20 20 21 20 20 20 19 19 20 21 20 20 19 19 18 18 17 16 17 18 18 18 17 17 17 16 17 18 18 18 17 17 17 18 18 18 17 14 12 12 11 11 10 10 10 11 11 10 9 10 11 13 15 17 17 17 18 18 19 20 20 19 17 16 18 19 20 21 21 21 21 21 21 20 20 19 18 18 17 17 17
19 19 19 19 19 19 20 20 21 21 20 19 19 19 20 20 20 20 19 18 19 18 18 17 16 17 18 18 18 17 17 17 16 17 18 18 18 18 17 18 19 19 20 20 17 15 14 13 11 10 9 9 11 14 13 11 10 12 14 17 19 20 19 19 20 20 20 20 18 17 16 18 20 21 21 21 21 21 20 20 19 18 18 18 17 17 17 16
19 19 19 19 19 19 20 20 21 20 20 19 20 20 20 20 20 19 18 18 18 17 16 17 16 17 18 18 17 16 16 17 16 16 16 17 18 17 15 15 16 19 20 20 19 18 16 14 11 11 12 10 11 16 17 16 14 14 16 18 19 20 20 20 20 20 20 20 18 16 17 19 20 21 22 21 21 20 20 19 18 18 17 17 17 17 17 17
19 19 19 19 19 19 19 20 20 19 19 20 20 20 20 20 19 17 17 17 16 15 15 16 16 17 17 18 16 15 17 17 15 16 17 17 19 19 18 16 15 18 20 20 20 20 19 18 14 12 13 11 11 13 15 15 15 16 16 17 19 19 20 20 20 20 20 20 18 16 18 20 20 21 22 21 20 20 19 18 18 17 17 17 17 17 17 17
18 18 18 18 18 18 18 19 19 19 20 20 20 20 20 20 20 19 18 16 15 15 16 15 16 18 18 17 16 14 16 17 15 16 18 18 19 20 19 18 16 17 21 21 20 19 20 19 13 11 12 11 11 12 10 12 16 16 15 17 18 18 19 19 17 18 19 19 19 18 19 21 21 21 21 20 20 19 19 18 18 18 18 17 17 17 17 16
18 18 18 18 17 18 18 18 19 19 20 20 20 20 20 20 19 19 19 17 16 16 16 17 17 19 18 17 17 15 15 16 16 17 18 18 19 19 18 17 14 16 19 20 21 19 20 18 12 10 12 10 10 11 9 12 16 16 17 18 17 14 16 19 17 15 17 19 20 20 20 21 21 21 20 20 20 19 19 19 19 19 18 18 17 17 17 16
17 18 17 17 17 18 18 18 19 20 20 20 20 19 19 18 16 16 17 17 17 17 17 19 18 18 19 18 17 16 16 17 16 17 19 18 19 19 18 15 12 13 14 16 20 19 19 18 12 11 13 10 9 10 9 10 12 16 18 16 14 13 15 19 19 18 18 19 20 20 20 20 20 20 20 19 20 20 20 20 19 19 19 18 18 17 17 16
17 17 17 17 18 18 18 19 19 20 20 20 20 19 17 17 14 13 14 15 17 18 18 20 19 18 19 19 18 16 16 18 17 17 19 19 19 18 18 16 12 11 10 11 17 19 18 19 15 11 13 11 8 10 13 11 10 13 15 13 14 18 18 19 19 19 19 20 20 20 20 20 20 20 20 20 20 21 20 20 20 19 19 19 18 17 16 16
18 18 18 17 17 18 18 19 18 20 20 19 20 20 16 15 13 11 11 13 17 18 19 19 18 18 18 19 18 17 16 18 17 18 19 19 19 17 16 15 13 11 10 11 17 18 17 20 18 12 12 12 11 13 17 15 11 11 12 13 14 17 18 19 19 19 20 20 20 20 20 20 21 22 22 21 21 21 21 20 20 20 19 19 18 17 16 15
18 19 18 17 17 18 18 18 19 20 20 18 19 18 15 13 13 10 10 12 15 17 18 19 18 18 18 17 17 17 17 17 17 19 19 18 19 17 14 14 14 11 10 12 15 17 17 19 19 14 11 13 15 14 15 16 15 14 15 16 16 16 17 18 18 18 18 19 20 20 20 20 22 23 23 22 21 22 21 20 20 20 19 18 18 17 16 15
19 19 18 16 17 18 18 19 19 18 19 17 17 16 14 13 13 11 10 11 13 14 15 17 18 18 18 17 18 17 16 17 17 19 20 18 19 18 12 9 11 12 12 14 16 17 18 19 19 16 14 17 16 11 9 11 12 14 16 17 17 17 18 19 18 17 17 18 19 19 19 21 22 22 23 23 22 22 21 20 20 19 19 18 17 16 16 15
19 19 17 16 17 17 18 19 16 15 18 17 15 13 13 12 12 12 11 11 13 14 14 15 17 17 18 17 18 17 17 17 17 18 20 18 17 16 10 5 7 10 13 16 16 14 16 19 19 18 16 15 11 7 7 8 8 10 13 14 16 17 18 20 20 18 17 17 17 18 19 20 21 20 21 22 21 21 20 20 19 19 19 18 17 16 15 15
18 17 16 16 17 17 18 18 15 15 16 13 11 11 11 12 13 12 12 13 14 14 15 15 16 16 17 16 16 17 17 18 18 18 18 18 15 10 7 5 7 10 13 16 17 14 15 19 20 18 16 12 9 7 7 7 8 12 13 12 14 17 17 18 18 18 18 17 17 19 19 21 21 18 18 20 19 19 19 18 19 18 18 18 17 16 15 14
18 16 16 16 17 17 18 19 18 17 14 11 11 12 11 11 12 12 13 14 14 15 15 16 15 15 15 15 15 17 17 17 19 17 16 17 13 6 5 6 7 10 12 13 14 14 16 20 20 19 18 17 15 13 12 11 10 14 15 13 13 15 16 16 17 18 18 18 19 19 19 21 20 18 17 18 18 18 18 17 17 18 18 18 17 15 15 14
17 17 17 17 17 17 17 17 18 18 14 13 14 14 13 12 11 11 13 13 13 14 15 15 14 14 14 14 15 15 14 15 18 16 14 14 10 6 6 6 6 8 8 7 8 11 16 19 19 19 20 20 19 19 18 16 14 14 15 14 13 15 16 17 18 18 19 19 19 19 20 21 20 18 18 18 17 18 18 17 17 17 17 17 16 15 14 13
18 17 16 17 17 17 16 15 16 17 15 15 16 15 15 15 12 10 11 13 12 12 13 14 13 14 14 14 15 15 14 13 14 15 15 13 10 6 6 6 6 7 6 6 7 10 16 18 17 18 19 19 19 18 15 15 16 16 15 14 13 14 15 17 18 18 19 18 18 19 20 20 20 20 19 18 17 17 18 18 18 17 17 16 15 15 14 13
18 18 17 16 16 17 16 15 16 17 16 17 18 16 15 15 13 11 11 12 12 12 13 13 13 15 16 15 16 16 15 13 13 14 14 13 9 7 6 6 7 7 6 7 8 11 16 18 16 17 18 16 17 16 12 13 17 17 16 15 13 13 14 16 17 18 19 19 19 19 19 20 21 21 20 19 18 18 18 18 18 17 17 16 15 14 13 13
17 18 16 16 17 17 16 16 16 17 17 17 17 16 16 15 14 14 13 11 11 12 13 14 13 14 16 16 17 16 15 15 15 14 14 12 10 9 8 8 7 7 7 8 8 11 15 17 15 16 16 14 13 13 11 13 15 15 15 15 14 13 13 15 16 17 19 20 20 20 19 19 20 20 21 21 19 18 18 19 18 17 16 15 15 14 13 14
15 16 14 13 16 17 15 16 16 16 17 17 16 16 16 15 15 15 13 11 12 12 13 15 15 14 14 16 17 17 16 16 17 15 14 13 11 11 12 11 9 6 7 9 9 10 14 17 15 14 16 15 12 11 11 12 13 14 14 14 14 13 13 14 15 16 17 18 19 18 17 17 18 19 20 21 21 19 19 18 18 17 16 15 14 14 14 14
15 17 15 14 15 14 13 15 16 16 17 17 17 16 15 16 16 15 13 14 15 14 12 15 16 14 14 15 16 17 17 17 18 17 14 14 13 13 14 14 12 7 7 10 10 9 13 16 14 13 17 16 12 10 10 10 12 13 13 13 13 13 12 12 13 14 15 16 17 16 16 16 17 18 19 20 20 19 19 18 17 16 16 15 14 14 14 14
15 16 16 16 16 14 14 15 15 16 16 16 17 17 16 16 16 15 15 15 16 15 13 14 16 15 14 14 15 16 16 16 17 16 14 15 15 14 14 14 13 10 8 10 11 10 12 15 14 14 18 17 12 10 10 10 10 12 13 13 12 13 13 13 13 13 15 16 17 16 16 17 19 20 19 19 19 19 18 17 17 16 15 15 14 14 13 13
15 15 15 17 17 14 13 15 15 16 17 16 17 16 16 17 16 16 17 15 14 14 13 14 16 15 14 14 15 15 15 15 14 13 13 13 13 13 13 13 12 11 10 10 11 11 12 14 15 16 18 18 13 9 10 12 14 17 17 16 14 13 13 14 14 14 14 16 17 17 18 19 20 20 20 19 18 18 17 17 17 16 15 15 14 14 14 13
Height
834 834 835 835 835 836 836 836 837 837 837 838 838 839 839 840 841 842 843 843 843 842 842 842 842 842 842 842 842 843 843 840 840 840 844 855 858 856 856 853 851 849 848 848 846 846 847 847 848 848 849 850 853 855 856 856 855 860 874 889 901 905 904 900 899 904 910 914 915 913 911 916 921 920 920 919 920 922 923 924 925 925 926 926 927 928 928 929
836 836 836 836 836 837 837 837 838 838 838 839 839 840 841 842 842 843 844 844 844 844 844 844 844 844 844 844 844 843 843 841 841 845 852 858 858 857 856 853 852 850 849 848 847 847 847 849 849 849 851 855 858 858 860 861 860 869 882 897 907 907 904 899 900 904 907 912 913 913 912 914 918 918 919 921 921 922 923 925 925 926 927 927 928 928 929 929
837 837 837 837 837 838 838 838 839 839 840 840 841 842 842 843 844 845 845 845 845 845 845 845 845 845 844 845 843 843 844 841 844 852 857 858 858 858 856 853 852 851 850 849 849 849 849 850 849 852 855 860 863 863 866 866 867 875 885 902 911 906 903 900 901 904 906 910 912 915 914 914 916 915 918 919 920 920 921 924 924 925 926 926 928 928 929 929
838 838 838 838 839 839 839 840 840 841 841 842 843 843 844 845 846 846 846 846 845 845 845 846 846 845 846 844 844 844 842 845 856 861 860 859 859 857 855 854 852 851 851 851 851 851 851 850 850 853 857 865 869 868 872 872 873 880 887 902 908 903 907 907 905 906 906 908 912 914 914 916 916 915 917 916 918 919 916 918 920 921 923 925 926 927 928 929
839 839 840 840 840 841 841 841 842 842 843 844 844 845 846 846 847 847 847 847 846 846 846 846 847 847 846 845 845 844 843 856 867 864 861 860 859 858 856 854 853 853 852 852 852 852 852 851 851 855 861 869 872 872 879 878 877 887 894 898 902 904 910 911 909 910 908 909 911 913 914 917 916 915 916 915 918 919 914 915 916 916 920 923 925 926 928 928
840 841 841 842 842 842 843 843 844 844 845 845 846 847 847 847 847 848 847 847 847 847 847 848 848 848 848 847 846 844 848 866 871 863 863 861 859 858 856 855 854 854 854 853 853 852 852 852 855 863 869 875 878 879 883 881 878 891 901 901 902 906 910 912 912 913 911 910 912 914 914 915 915 916 916 916 917 917 914 915 916 916 919 921 923 925 927 928
841 842 842 843 843 844 844 845 845 845 846 846 847 847 848 848 848 848 848 848 848 848 849 849 849 849 849 848 848 848 855 868 869 865 864 861 859 858 857 857 855 856 855 854 853 852 854 856 861 867 871 878 882 885 886 885 884 892 904 906 907 909 911 913 914 914 913 913 915 914 914 914 916 917 917 916 915 916 916 916 917 918 919 921 923 924 926 927
842 842 843 844 845 845 845 846 846 846 847 847 848 848 849 849 849 849 849 849 849 849 850 849 850 849 849 849 850 854 863 870 868 866 864 861 860 859 858 858 856 857 856 855 855 854 857 861 864 866 873 880 882 886 887 889 894 898 905 909 909 911 913 914 914 915 915 915 916 915 914 915 916 918 918 915 914 916 917 917 918 919 920 921 922 924 925 926
842 843 844 845 845 846 846 846 847 847 848 848 849 849 849 849 850 850 850 850 850 850 850 850 851 850 850 850 849 859 871 872 869 867 864 862 861 860 860 859 858 858 857 857 856 856 860 862 864 865 874 880 881 886 884 889 902 904 905 909 910 913 914 914 915 915 916 915 916 916 915 916 916 918 917 912 912 915 916 918 919 920 921 921 922 923 924 925
843 844 844 845 846 846 847 847 848 848 849 849 849 850 850 850 850 850 851 851 851 851 851 851 851 850 851 850 851 866 875 872 870 868 865 864 863 861 860 860 860 859 859 859 858 859 861 863 865 864 871 879 885 889 887 892 903 904 905 909 911 914 914 914 915 916 916 916 917 917 915 914 916 919 916 910 911 914 916 918 919 920 921 921 922 922 923 924
844 844 845 846 846 847 847 848 849 849 850 850 850 850 851 851 851 851 851 852 852 851 852 852 852 852 852 852 859 873 876 871 871 869 867 866 864 863 862 862 862 861 861 861 862 863 863 865 864 866 874 882 888 894 895 897 901 903 905 910 912 913 914 914 915 916 916 917 917 917 917 915 916 919 914 909 911 914 915 917 918 920 920 920 921 921 922 923
845 845 846 846 847 848 848 849 849 850 851 851 851 851 851 852 852 852 852 852 852 852 853 853 854 854 852 857 868 876 875 873 873 870 869 868 867 867 865 864 863 863 863 863 865 866 865 866 863 867 877 883 891 898 901 900 900 903 903 910 915 913 915 915 914 916 916 918 918 917 918 916 917 916 910 909 912 913 915 916 917 919 919 919 920 920 921 921
846 846 847 847 848 848 849 850 850 851 851 851 852 852 853 853 853 853 853 853 854 854 855 854 856 853 854 867 877 877 875 874 873 873 871 869 870 870 867 866 865 865 865 865 868 868 867 867 864 869 876 883 894 898 898 899 901 902 901 908 915 915 917 916 914 916 916 918 917 918 917 912 912 911 908 910 912 913 915 915 916 917 918 918 918 918 919 919
846 847 848 848 848 849 849 850 851 852 852 852 853 853 854 854 854 855 855 855 855 856 856 856 857 854 859 875 880 877 877 876 875 874 873 871 872 872 869 868 867 868 868 868 870 870 870 868 865 872 880 885 893 896 899 903 903 903 903 906 908 912 920 916 914 916 917 918 916 919 918 909 907 908 908 910 910 912 914 914 914 915 915 916 916 916 917 917
847 848 848 849 849 849 850 851 852 853 853 854 854 854 855 855 856 856 856 857 857 858 858 857 858 857 867 879 879 878 877 876 877 876 875 874 874 874 872 871 871 871 871 871 871 872 872 870 869 878 887 888 890 896 902 904 902 903 906 907 901 906 919 918 915 916 917 918 916 918 919 909 906 908 908 909 909 911 913 913 913 912 913 913 914 915 915 915
848 849 849 850 850 850 851 852 853 854 855 855 856 856 857 857 858 858 858 858 858 859 858 860 860 860 871 881 879 879 879 878 879 879 878 878 877 877 875 874 875 874 874 874 874 874 871 870 876 884 890 892 891 894 902 903 903 904 905 906 901 904 917 919 917 916 916 917 916 918 920 912 907 908 908 908 908 910 911 911 910 910 910 911 911 912 913 913
849 850 850 851 851 852 853 854 855 856 856 857 857 858 858 858 859 858 859 859 860 861 859 863 862 862 874 882 880 881 881 881 881 880 880 880 879 879 877 876 876 876 876 875 874 874 873 875 884 886 887 892 892 892 901 907 908 904 900 903 903 905 911 916 918 918 916 918 917 918 920 913 906 907 908 908 908 909 911 910 909 908 908 908 909 910 910 910
850 850 851 852 852 853 854 855 856 857 858 858 858 859 859 860 859 859 860 860 861 861 861 864 864 869 882 884 883 885 883 883 882 882 882 881 880 879 879 878 878 878 878 878 877 876 876 879 884 888 893 901 904 902 904 910 912 908 904 904 905 904 906 910 917 919 916 917 917 917 919 912 903 905 907 906 907 908 909 909 908 907 906 906 907 907 908 908
850 851 853 853 854 854 855 856 857 858 859 859 860 860 860 860 859 861 863 863 867 870 872 876 875 880 886 885 885 886 884 884 883 883 883 882 881 880 880 879 879 879 880 881 881 880 881 885 888 896 909 917 920 919 915 916 917 912 907 905 903 906 910 912 917 920 918 918 917 916 914 908 901 902 905 905 905 906 907 907 906 906 905 905 905 905 905 905
851 852 853 854 855 856 856 857 858 859 860 860 861 861 861 862 865 870 872 872 878 883 885 885 885 885 885 886 886 885 884 884 884 885 885 883 882 881 880 880 880 881 884 887 887 884 885 897 910 918 924 925 925 924 922 920 917 911 907 903 902 907 913 915 917 920 919 919 915 910 908 905 901 897 898 902 905 906 906 906 906 905 904 904 903 903 903 903
852 853 854 855 856 857 858 859 859 860 860 861 861 862 863 863 868 875 879 883 886 886 887 887 887 887 888 888 887 886 886 885 885 886 885 884 883 883 881 880 882 885 891 893 889 887 888 903 922 929 928 928 926 924 922 918 913 909 906 904 904 910 915 916 918 919 919 919 911 907 908 904 899 897 897 902 905 906 905 904 904 903 903 902 901 902 902 901
853 854 855 856 857 858 859 860 861 861 861 862 861 862 863 863 865 868 873 884 889 886 887 888 887 888 888 888 887 887 887 888 888 886 886 885 884 885 883 881 886 890 893 891 890 895 902 914 927 929 929 929 925 922 920 917 913 909 905 906 909 913 916 917 920 919 919 919 911 910 913 903 895 898 900 902 903 902 901 901 901 900 900 900 900 900 900 900
854 855 856 857 858 860 860 861 861 862 862 862 862 863 864 864 866 866 868 880 889 889 888 888 888 889 888 888 889 887 889 894 894 890 889 888 886 887 885 886 890 893 894 893 892 896 905 921 930 929 930 928 922 919 918 915 914 915 911 911 914 916 917 919 920 919 917 918 915 915 917 905 897 900 901 900 899 898 898 898 898 899 899 898 898 899 900 900
855 856 857 858 859 860 861 862 862 862 863 863 863 864 865 866 866 867 868 877 887 889 889 889 889 890 890 891 891 889 892 897 898 895 893 891 890 888 889 892 893 898 903 900 897 903 914 928 933 930 930 927 921 920 923 918 914 921 923 919 920 921 923 923 920 917 914 915 917 917 916 906 898 900 900 898 900 899 898 899 899 899 899 899 899 900 900 899
855 856 858 859 860 861 862 862 862 863 863 864 865 865 866 866 866 866 867 878 890 891 890 890 890 891 893 892 892 893 895 897 899 898 895 895 893 890 892 895 895 902 908 905 905 915 925 933 933 929 927 925 921 922 930 927 916 920 928 929 928 927 929 927 921 919 918 918 915 913 918 912 898 897 897 896 899 899 898 899 899 898 898 900 900 899 898 898
856 857 859 860 861 862 862 863 863 863 864 865 866 866 867 866 867 866 866 881 897 895 892 892 892 894 894 893 894 894 896 898 899 898 896 896 894 893 894 896 898 904 909 909 912 919 927 932 933 929 926 923 922 925 934 934 919 916 929 936 934 931 931 927 924 922 919 916 911 909 918 916 904 899 896 893 895 897 897 897 896 895 896 897 898 897 896 896
857 859 860 861 862 862 862 862 863 864 864 867 867 867 868 867 867 866 871 891 901 894 894 895 894 896 895 895 895 896 899 899 898 898 897 896 895 893 894 898 901 906 913 912 910 920 930 930 929 928 924 921 921 925 935 937 922 918 933 940 934 931 931 928 928 925 917 913 911 912 917 916 910 904 893 890 894 896 897 897 895 894 895 895 895 895 895 895
858 859 860 862 862 862 863 862 863 864 865 867 867 868 868 868 868 867 879 901 903 893 895 895 895 896 895 895 896 897 901 900 899 898 896 896 895 893 896 904 905 908 916 909 904 923 934 929 930 929 923 922 926 931 939 938 927 927 938 939 934 935 933 932 930 923 917 914 914 916 917 914 911 903 892 890 896 898 897 895 895 894 894 895 894 895 895 895
859 860 861 862 862 863 863 863 864 865 866 867 868 869 869 869 869 872 886 902 900 895 895 896 897 897 896 897 897 898 899 901 900 898 896 896 896 894 898 906 907 909 915 909 910 929 936 933 935 933 926 927 933 938 941 939 932 935 941 937 936 936 933 933 932 922 918 916 915 919 920 916 912 904 896 895 899 902 899 894 893 894 894 895 895 895 895 895
859 860 861 862 863 864 864 865 865 866 868 869 869 870 870 870 873 885 898 899 897 897 895 896 899 898 897 899 900 900 900 902 902 899 897 897 897 898 901 904 904 908 915 917 923 933 937 937 938 936 935 935 937 940 942 942 939 939 939 934 932 933 930 929 927 921 919 917 917 924 925 920 917 907 898 898 899 899 898 894 893 894 894 895 895 896 896 896
859 860 861 862 863 864 864 865 866 867 868 869 870 870 871 874 880 893 902 896 894 899 897 899 902 899 898 900 901 902 903 903 903 901 899 899 900 901 903 904 903 907 912 916 926 935 935 934 937 939 940 939 939 940 942 945 943 939 936 930 924 924 925 924 922 922 921 918 918 925 928 925 920 908 898 896 894 893 895 895 895 895 896 896 896 896 896 896
859 860 862 862 863 864 864 865 865 868 869 869 871 870 874 884 888 892 897 895 895 899 898 901 903 901 899 900 904 906 906 905 905 905 904 903 903 904 907 907 904 906 908 908 918 928 931 934 939 940 942 942 937 932 935 941 941 938 932 926 919 918 921 922 920 919 919 917 919 927 929 923 913 900 894 893 892 892 893 893 894 896 896 896 896 896 896 896
859 861 862 862 863 863 864 865 866 867 868 870 872 871 879 893 896 894 896 896 898 900 900 900 902 902 900 900 906 909 908 907 906 907 907 906 904 908 912 912 910 906 904 907 913 919 924 931 938 937 936 941 937 926 922 926 932 932 926 921 919 919 922 922 918 917 918 917 921 930 928 916 906 895 888 890 890 890 891 892 894 895 895 896 896 896 896 896
859 861 862 862 863 864 864 865 866 868 869 871 873 877 887 895 895 898 900 900 902 903 902 903 903 902 903 904 909 911 907 908 911 908 906 906 904 905 907 910 913 907 901 906 908 910 913 917 930 936 933 938 939 932 929 929 929 927 925 925 922 921 921 921 918 915 915 915 921 930 922 906 903 895 885 886 888 889 891 892 893 894 894 895 894 895 895 895
859 861 862 862 863 863 864 865 867 868 870 872 877 885 892 891 887 889 894 899 904 903 902 904 902 901 905 908 910 912 908 907 912 909 905 907 904 902 902 904 910 907 900 901 903 909 910 912 931 941 936 938 939 937 940 936 927 924 927 926 922 922 920 922 931 929 923 920 918 918 910 895 893 889 884 887 889 889 891 891 893 893 892 893 893 894 895 895
859 861 861 862 863 864 865 866 867 869 869 874 883 888 889 886 885 885 888 893 897 899 902 903 902 901 905 907 908 911 910 907 910 909 906 906 903 902 904 906 912 909 903 900 901 908 910 916 937 943 937 942 940 939 944 935 925 925 924 923 926 932 926 921 935 941 935 926 914 907 903 895 893 891 888 890 890 890 891 890 891 890 890 892 892 893 894 895
859 861 862 863 864 864 866 866 867 869 868 875 885 888 887 887 891 892 890 890 890 893 897 898 899 901 902 905 907 909 909 907 909 908 905 905 902 899 903 909 916 915 913 909 902 905 908 915 936 940 933 941 943 941 943 941 936 927 922 927 930 932 928 920 924 929 927 921 911 906 903 899 899 897 893 892 891 890 889 887 888 888 889 890 891 892 894 894
859 860 862 864 864 865 866 866 867 867 869 879 885 887 888 890 894 896 894 892 889 889 894 894 895 898 898 899 904 909 909 906 909 908 904 904 901 898 901 908 916 918 921 918 906 904 907 908 929 942 935 938 946 940 934 938 942 934 928 934 931 922 921 921 921 922 922 919 910 906 905 901 896 894 892 892 890 886 885 886 886 887 888 888 890 891 892 893
858 860 863 864 864 865 866 866 868 867 872 883 884 883 891 894 897 901 900 896 890 889 892 892 894 898 897 897 900 906 907 905 908 906 901 901 900 901 905 907 914 920 922 919 908 905 908 904 917 937 938 937 940 932 922 926 938 940 935 935 930 924 921 920 921 920 920 919 913 910 909 898 884 878 880 883 883 881 882 884 884 884 885 887 888 890 891 893
857 860 864 864 864 865 866 866 867 867 875 886 884 884 894 897 898 902 903 899 894 891 890 889 892 895 897 900 900 902 905 905 906 902 899 901 899 902 910 909 911 919 921 918 910 907 910 906 911 932 940 932 928 928 923 921 926 930 928 928 927 926 925 922 922 923 922 919 914 914 912 893 874 869 870 872 875 875 876 880 882 882 884 885 887 889 890 892
856 860 864 864 864 865 865 866 871 875 879 885 888 891 896 897 898 902 903 902 899 896 894 891 892 892 895 899 898 899 903 904 904 900 896 900 898 899 913 920 916 917 916 913 909 907 908 907 911 925 930 921 922 937 941 936 933 928 921 920 919 920 921 919 921 925 926 922 916 917 915 892 871 868 867 866 870 871 873 877 879 881 883 884 886 888 889 891
856 862 864 863 864 865 864 870 880 881 879 884 891 895 897 897 898 900 901 901 899 897 897 895 894 894 894 896 897 898 902 902 903 901 895 897 900 903 918 929 925 919 914 908 908 912 910 906 908 917 923 925 935 947 949 946 945 939 930 926 920 917 915 913 916 920 924 928 924 924 920 893 871 872 870 866 869 871 872 875 877 880 881 882 885 886 888 890
857 862 864 863 864 864 866 875 883 882 884 893 899 898 899 898 898 899 900 899 898 897 897 896 895 896 895 897 899 898 898 898 898 900 897 897 907 919 927 930 926 920 915 907 907 913 911 904 905 912 920 931 942 948 948 949 945 933 928 931 926 918 914 914 916 916 920 926 922 923 919 890 871 876 876 871 873 874 875 876 877 880 880 881 884 885 887 889
857 862 863 864 865 864 867 873 878 880 889 898 898 898 901 900 898 899 898 898 898 896 896 896 897 897 897 900 900 898 900 898 894 898 901 899 911 928 931 928 927 922 917 914 912 913 908 900 902 911 914 916 923 928 929 936 938 925 919 926 925 919 919 919 917 917 919 915 909 915 910 884 872 879 878 877 878 876 877 879 877 879 880 880 883 884 887 889
857 862 864 864 865 866 868 870 870 876 888 893 892 893 896 897 900 901 898 898 899 897 896 898 899 899 900 902 902 902 906 903 897 901 906 906 918 931 930 929 929 925 924 927 925 919 909 900 902 907 908 907 907 907 907 913 922 921 917 921 922 920 918 914 914 919 917 910 907 907 895 877 875 880 877 878 880 877 877 877 877 879 879 879 882 884 886 887
855 862 867 867 866 866 869 871 869 873 883 886 885 889 890 891 898 903 900 898 899 900 898 899 900 900 900 902 901 901 906 907 905 905 905 909 921 929 930 929 929 928 929 930 928 921 909 903 905 903 901 903 901 903 912 915 911 911 914 918 921 921 917 912 914 915 910 910 910 898 885 879 874 874 876 877 877 877 876 874 875 877 878 879 881 882 884 885
852 857 863 866 868 869 870 872 870 870 875 875 876 883 887 889 895 900 901 900 900 901 899 899 900 896 896 899 899 899 904 907 909 908 905 911 922 929 931 929 928 929 929 928 927 921 908 905 909 905 904 909 906 908 921 920 908 906 910 914 919 921 920 916 912 904 900 906 903 888 884 884 873 867 871 873 873 875 873 872 872 873 875 878 879 881 883 883
852 853 856 858 861 866 868 868 869 870 871 872 875 880 884 888 891 892 896 902 902 900 897 897 898 895 893 893 892 897 904 905 905 906 906 910 918 924 925 927 928 928 928 927 925 920 911 907 910 909 907 913 916 918 922 919 913 912 911 910 915 920 919 914 908 900 895 894 888 881 884 884 872 865 865 863 865 867 866 867 868 870 874 876 877 880 880 881
854 854 857 858 857 862 865 864 866 869 870 873 878 880 882 885 886 886 892 899 900 899 897 892 891 893 893 891 889 893 899 897 895 899 904 908 913 916 914 916 923 929 928 924 924 924 914 906 912 914 908 910 919 924 925 922 916 914 912 910 912 915 915 910 906 902 898 891 885 886 890 884 871 866 863 858 858 860 861 864 867 869 872 874 876 878 878 879
851 850 855 859 861 865 867 865 866 869 871 873 875 877 879 880 881 884 888 889 887 893 897 890 886 889 892 891 890 889 890 887 887 892 898 902 905 908 906 902 911 927 929 921 921 925 916 907 914 916 904 905 921 928 927 926 921 914 911 911 911 912 915 915 911 906 904 898 889 890 896 885 864 858 860 858 857 859 861 864 865 867 870 872 873 875 875 877
847 847 848 852 860 866 867 867 867 868 872 874 872 873 876 876 877 880 882 881 879 884 890 886 883 887 891 892 890 888 887 886 887 889 893 894 895 897 899 897 902 916 925 921 919 921 917 911 913 914 903 902 919 929 926 927 927 917 908 907 910 909 907 904 903 901 896 890 887 892 894 877 855 851 856 857 857 859 860 862 864 865 867 869 870 872 873 874
846 847 846 847 856 867 868 866 867 867 868 868 867 870 871 870 873 875 876 880 881 883 886 884 881 885 890 892 890 887 887 889 890 892 893 894 895 896 897 899 900 906 915 918 916 915 915 910 907 909 903 899 916 930 925 920 914 896 882 884 892 896 896 894 894 892 887 884 885 884 873 857 850 852 854 855 858 859 859 860 861 862 864 866 867 869 870 871
Wind_Speed
13 14 14 13 13 12 13 13 14 13 14 14 14 14 15 17 17 18 18 17 16 16 16 16 17 16 17 18 21 22 22 27 29 34 28 18 21 16 14 13 12 8 6 10 12 6 11 10 9 10 9 7 5 3 5 7 2 2 4 6 6 5 5 5 6 6 6 8 5 3 4 7 5 4 2 3 3 5 4 4 3 4 5 8 9 10 12 11
12 13 14 14 13 13 13 14 14 13 14 14 14 15 15 16 16 17 15 13 13 13 14 15 16 16 16 16 16 17 18 27 33 30 22 19 16 11 12 13 11 8 6 11 15 9 7 6 8 9 6 5 5 6 6 5 5 5 4 6 5 4 5 6 8 8 7 7 7 3 2 6 5 4 3 3 5 5 5 4 4 5 4 6 8 9 10 10
10 10 12 13 13 14 14 15 15 15 15 15 15 14 13 14 14 14 12 11 11 11 12 13 14 14 13 11 11 10 11 23 26 18 20 20 13 12 13 12 11 9 7 10 12 11 6 8 14 11 6 6 6 7 6 4 4 5 5 6 5 4 7 7 8 9 8 7 8 5 3 6 3 2 2 3 6 6 5 6 5 5 5 6 8 9 9 9
8 9 10 12 12 13 15 16 16 16 16 14 13 12 12 12 11 10 9 9 9 9 10 11 12 10 7 5 6 5 5 13 12 13 21 19 14 14 12 11 11 9 9 8 8 8 6 10 14 9 7 7 6 7 8 6 3 4 5 7 6 5 7 7 8 8 7 7 7 6 4 5 3 1 1 2 5 4 4 7 6 7 8 7 9 11 10 10
8 9 10 12 12 13 15 16 16 16 14 13 12 11 10 9 7 7 8 8 7 8 8 9 8 5 6 7 6 4 3 3 6 17 22 18 14 13 12 11 9 8 8 7 7 6 3 10 10 6 6 5 4 5 7 7 4 5 7 8 8 6 7 6 7 6 4 7 6 5 4 5 3 1 2 2 0 1 2 5 2 5 9 9 10 12 11 11
8 9 10 11 11 12 14 15 15 14 14 13 12 10 7 6 7 8 8 8 8 8 7 7 7 10 14 14 12 9 4 3 8 20 21 18 15 11 11 10 7 7 7 7 6 3 2 8 8 6 5 6 7 7 6 5 3 6 7 8 9 7 7 6 5 5 4 4 4 3 3 4 2 2 2 3 1 3 4 6 4 5 11 13 13 13 12 11
9 9 10 10 11 11 12 13 13 14 14 13 10 7 6 7 7 7 6 8 10 9 8 9 10 13 15 17 20 18 9 4 13 21 19 19 15 9 9 8 7 7 8 10 6 3 6 8 9 7 6 7 8 8 9 10 9 9 8 7 9 8 7 6 4 3 5 5 5 3 2 2 0 1 2 2 3 5 4 6 5 5 8 12 12 12 11 11
9 10 9 10 10 11 11 11 11 11 11 10 8 7 7 7 6 6 7 9 10 10 11 10 8 7 8 10 13 12 7 6 19 21 18 18 14 8 7 8 10 8 9 11 9 7 6 6 8 5 6 7 7 8 8 10 10 9 8 7 7 7 7 6 4 4 5 4 4 2 1 3 3 1 2 3 6 6 5 7 5 4 5 7 9 11 11 10
10 10 9 9 9 9 10 10 9 9 9 8 8 8 8 6 5 6 7 7 7 9 9 6 5 5 5 4 7 7 5 11 18 17 18 18 15 8 7 8 9 7 9 11 8 4 2 3 5 5 8 8 7 6 2 4 5 5 8 7 7 7 5 4 4 4 3 3 3 3 1 4 3 1 3 5 7 7 7 6 6 5 4 5 6 9 10 10
10 10 9 8 8 8 9 9 9 8 8 7 8 8 7 6 6 6 6 6 6 7 5 4 5 4 4 4 6 6 7 13 15 15 18 19 15 8 6 9 9 7 10 15 13 7 5 9 11 11 11 8 8 6 6 5 5 7 10 9 8 7 4 2 4 4 1 2 2 4 1 3 4 1 3 4 8 8 7 5 6 5 5 5 6 8 9 10
10 10 9 7 7 7 7 8 8 8 8 8 8 8 7 6 6 5 4 5 7 8 6 6 5 5 15 15 8 5 7 12 14 16 18 19 17 12 10 9 8 9 13 17 17 13 12 12 11 8 6 6 9 9 9 8 9 10 10 9 7 6 5 2 4 3 1 1 2 4 3 1 5 1 3 6 7 7 6 5 6 5 5 6 7 9 9 11
9 10 8 7 6 6 6 7 8 8 9 9 8 8 8 7 6 5 5 7 9 11 10 12 10 13 24 21 7 3 7 11 14 15 16 18 17 14 13 10 11 13 16 16 13 11 7 3 4 5 4 5 6 6 5 7 9 9 7 7 6 5 5 2 3 3 1 0 1 1 3 3 5 5 4 7 6 6 6 6 6 6 5 5 7 8 10 11
9 8 7 6 5 5 6 8 9 10 10 9 8 9 9 8 8 8 9 10 12 13 13 13 11 14 18 11 4 5 9 14 14 12 15 18 15 14 14 12 14 15 17 18 14 14 12 11 16 14 6 5 4 4 6 6 5 6 4 5 5 4 3 1 3 3 2 0 1 2 2 2 7 7 6 8 6 7 5 6 6 6 6 5 6 6 8 11
9 8 7 5 4 5 7 10 11 11 11 10 10 12 12 12 12 12 13 14 15 14 14 13 10 13 14 5 2 7 11 13 14 13 15 16 14 15 18 16 16 16 17 19 17 15 16 22 26 15 5 5 5 6 7 4 1 2 3 2 3 2 2 1 2 1 1 1 2 2 1 0 5 7 7 7 7 7 6 6 6 6 6 6 6 6 6 10
10 8 7 5 5 6 10 13 13 12 11 12 14 15 14 13 12 12 13 14 14 13 12 12 10 13 10 3 2 7 10 11 13 15 14 14 13 12 17 18 18 18 18 19 16 13 14 20 19 9 5 6 7 7 5 3 2 2 3 0 2 2 2 1 1 1 1 1 4 2 1 1 5 6 7 7 7 7 6 6 7 6 6 6 6 6 6 9
11 9 7 6 7 10 13 15 14 12 12 14 15 14 13 13 12 12 11 10 9 6 8 10 10 12 7 1 2 6 9 9 10 12 11 12 11 7 9 12 13 15 14 14 14 12 15 17 10 3 5 3 3 4 3 2 2 2 2 1 1 2 3 2 1 1 2 0 3 3 2 3 3 6 6 6 7 7 6 6 7 6 7 6 6 6 6 7
11 10 9 9 11 14 16 16 14 13 13 14 14 13 13 11 10 10 9 8 7 6 11 13 12 12 6 2 2 4 5 6 7 9 9 10 9 6 6 5 5 7 7 7 8 7 9 9 2 1 4 1 2 1 2 2 1 1 1 1 2 2 3 2 0 0 1 1 2 4 3 6 3 7 7 7 7 7 6 7 6 6 6 6 6 6 6 6
12 11 10 11 14 15 16 16 15 14 13 13 12 12 12 10 11 13 12 10 10 11 13 10 9 7 3 1 2 2 3 5 7 10 10 10 7 6 6 3 1 3 2 2 5 5 4 2 1 3 4 5 5 3 1 2 1 3 2 2 1 1 2 1 2 0 2 2 3 3 5 8 6 7 8 7 8 7 7 7 6 6 6 6 6 6 6 7
12 11 11 13 15 16 16 16 15 15 15 15 15 14 14 12 14 18 22 17 9 6 6 4 5 2 2 2 2 3 4 5 7 10 12 11 8 5 5 2 3 3 2 1 3 4 2 2 2 4 4 5 5 4 3 1 3 4 3 3 2 1 2 2 3 1 1 1 4 5 5 7 6 5 8 8 8 7 7 6 6 6 6 6 6 6 7 6
12 12 12 13 15 16 16 16 16 17 17 16 12 9 9 7 7 9 17 18 8 3 3 3 1 3 4 3 3 5 5 4 5 9 14 14 10 6 4 3 3 2 3 0 1 2 1 5 5 4 4 3 4 4 3 3 4 3 4 3 2 3 2 1 3 2 1 1 4 5 5 7 7 5 6 9 7 7 7 6 6 6 5 6 6 6 7 7
13 13 13 13 15 16 17 17 17 16 13 10 4 1 1 1 2 2 3 8 7 6 6 4 5 6 4 3 6 7 3 2 3 10 17 13 6 3 2 1 0 4 3 1 2 2 3 6 4 3 2 3 3 3 4 4 4 4 4 3 2 4 2 2 3 1 2 1 2 0 5 7 3 2 3 8 7 6 7 7 7 7 7 6 7 7 7 6
13 14 14 15 16 17 16 15 13 11 7 3 2 2 2 3 7 10 7 5 5 7 5 3 6 7 4 6 10 8 3 2 3 10 19 14 3 0 3 2 4 2 1 2 0 3 5 4 2 3 2 4 4 4 4 3 3 4 4 3 2 2 1 2 2 1 1 0 1 5 6 5 2 5 4 6 6 6 6 7 6 6 7 6 7 7 6 5
13 15 16 18 18 15 12 10 9 6 3 1 2 6 9 13 16 14 8 6 3 6 5 3 4 5 4 6 10 9 4 3 2 6 17 15 3 1 3 4 5 3 3 5 3 4 3 2 2 2 3 4 3 2 4 3 1 4 4 3 2 3 2 1 0 2 3 2 2 5 5 3 1 3 1 4 4 3 3 2 3 3 5 6 4 3 3 4
13 14 18 20 16 11 8 7 4 2 1 3 9 14 17 19 16 9 5 5 3 3 4 3 3 4 3 3 8 8 3 3 1 5 14 12 3 2 2 2 4 4 4 6 8 7 4 2 3 2 3 3 2 3 6 3 2 4 5 3 1 2 2 1 2 3 2 2 2 3 4 3 2 3 1 3 1 3 2 3 4 5 5 5 4 5 4 5
13 15 19 18 13 8 7 4 2 4 6 8 14 17 17 15 7 2 2 3 3 2 3 2 2 3 3 4 7 5 2 2 1 4 9 8 3 2 1 0 2 3 3 5 9 8 4 1 2 3 2 2 2 4 6 4 2 2 3 3 2 2 3 4 5 3 1 1 3 1 2 3 1 4 2 3 2 2 4 5 6 7 6 5 5 7 7 7
14 16 17 14 8 6 5 2 5 11 10 8 13 15 12 8 2 6 2 3 3 1 2 1 1 2 3 4 6 3 1 0 1 3 6 6 3 0 1 2 2 2 2 3 5 3 2 1 1 2 3 1 2 4 3 3 2 1 2 2 3 2 3 4 5 2 1 2 3 1 3 2 2 3 1 1 4 5 5 4 3 2 3 5 5 5 3 2
15 14 14 10 7 6 1 2 9 10 6 7 13 11 6 2 5 7 3 4 1 2 1 1 0 2 2 3 3 2 1 2 1 2 4 6 4 0 2 2 2 3 2 2 2 1 1 1 1 2 3 1 2 2 2 3 2 0 2 2 4 3 3 4 4 2 2 1 2 1 3 2 1 1 3 2 3 4 3 4 4 3 4 4 3 2 2 0
14 13 11 8 7 4 1 6 13 5 4 12 12 5 1 1 5 5 3 2 1 2 1 1 1 1 1 1 2 1 2 1 1 1 4 6 5 1 3 2 2 5 1 1 2 1 2 2 1 1 1 1 1 1 2 2 2 1 1 2 3 3 3 3 4 4 2 2 1 4 3 2 1 3 3 2 4 5 3 3 5 4 5 4 2 3 1 1
14 12 10 7 6 3 1 9 10 4 9 14 7 1 1 3 3 4 2 1 1 1 1 1 1 1 0 1 2 1 1 1 1 2 4 4 5 3 4 2 5 8 4 4 4 2 1 2 1 1 1 1 2 1 1 1 1 1 3 2 2 2 2 1 2 4 2 2 3 5 5 2 1 3 1 2 4 3 3 1 5 6 5 4 4 4 3 3
14 11 9 6 5 4 4 8 6 6 14 11 3 1 2 3 2 4 1 2 1 0 2 1 2 1 0 1 2 2 1 2 1 2 2 2 5 5 3 0 2 6 5 7 6 3 1 1 1 1 1 1 2 2 1 2 1 2 3 2 1 1 1 2 2 2 2 1 3 1 2 3 1 4 2 2 2 3 2 1 3 4 4 4 4 4 4 5
14 11 9 6 5 5 6 5 6 11 16 10 2 1 2 2 1 2 1 1 1 1 1 1 1 1 0 1 2 1 2 2 2 3 1 1 3 3 2 1 0 3 4 5 5 1 2 0 1 1 1 1 1 1 1 1 1 2 1 1 2 2 2 1 2 1 2 2 3 1 2 2 2 4 2 4 5 5 3 1 1 2 3 3 3 3 3 3
14 11 9 7 6 8 7 5 9 14 16 10 0 1 1 2 0 1 2 2 1 2 1 0 1 1 1 1 2 0 1 1 2 2 1 0 1 1 1 1 2 2 2 1 1 0 0 1 0 1 0 1 0 0 1 1 0 1 2 3 4 2 2 1 1 0 1 4 2 3 2 1 2 4 4 7 6 5 3 2 2 0 1 1 2 3 2 1
14 11 10 7 7 9 7 6 12 16 16 8 2 2 2 1 1 1 1 0 1 1 1 2 1 1 1 1 1 1 1 1 2 1 0 1 2 1 1 2 2 1 1 2 2 0 1 1 2 1 0 1 0 1 1 1 0 0 1 3 2 1 1 1 1 0 1 3 2 1 1 1 2 2 5 7 6 6 5 4 3 2 2 1 1 3 2 2
13 11 9 7 6 8 8 10 14 15 12 6 1 2 2 0 2 1 1 1 1 2 0 1 2 3 3 1 1 0 1 1 2 1 0 1 2 1 2 2 1 1 2 3 1 2 1 2 1 1 0 2 1 1 2 1 1 1 1 4 2 2 2 1 1 0 2 2 2 1 0 2 2 3 4 7 6 6 5 4 4 3 4 4 4 3 0 3
13 10 8 7 7 9 11 14 15 13 11 5 1 2 2 2 2 1 2 3 1 2 1 1 2 3 2 1 0 1 1 0 2 1 1 1 1 2 2 2 2 1 2 2 1 2 1 2 1 1 2 2 1 1 0 1 0 2 1 4 1 2 2 1 1 1 1 1 2 1 2 3 3 1 4 7 6 6 5 5 5 5 6 5 3 1 2 3
13 10 8 9 11 13 14 13 12 12 9 4 1 1 2 1 1 1 2 3 3 4 4 1 2 3 1 1 1 2 0 0 0 1 0 1 2 2 1 1 1 1 2 3 1 1 1 2 1 1 2 2 1 1 0 1 1 1 1 1 2 2 3 3 0 1 1 1 2 1 2 2 1 1 2 6 5 6 6 6 6 6 6 5 4 3 3 2
14 10 8 8 10 12 12 10 11 11 6 3 2 2 1 1 1 1 1 1 2 5 5 3 1 2 3 2 1 1 1 0 0 1 1 2 2 2 4 1 1 1 2 3 1 2 2 1 2 1 1 1 1 1 1 1 2 2 1 2 2 1 2 2 1 2 1 1 2 1 2 3 1 2 3 5 6 7 7 7 6 6 6 5 5 4 4 3
15 10 6 6 8 10 9 8 10 9 4 2 1 1 1 1 2 2 2 1 1 3 3 2 1 0 3 4 2 3 3 1 1 2 1 2 2 1 5 2 2 2 1 1 1 1 2 1 2 2 1 1 1 1 2 1 2 3 2 2 0 1 0 1 1 0 1 2 3 2 2 2 4 4 5 7 8 8 7 7 6 7 6 5 5 5 4 3
14 8 3 4 7 8 8 8 8 5 3 3 2 2 1 1 1 2 3 3 0 2 2 2 1 1 2 4 3 3 3 2 4 3 1 2 2 1 2 2 0 1 1 2 2 1 1 1 2 3 2 2 0 0 2 1 1 1 1 2 0 1 2 2 1 1 2 1 3 2 2 3 6 6 9 10 10 9 8 7 7 7 6 6 5 5 4 3
10 4 1 5 7 7 7 6 4 3 4 2 2 2 0 1 1 2 3 2 1 1 1 0 2 2 1 1 0 2 3 2 4 3 1 1 1 2 2 1 3 2 2 2 1 0 2 1 2 2 2 1 1 2 3 2 2 1 1 0 1 0 0 1 0 1 2 1 2 1 2 5 5 3 8 11 9 9 9 8 7 6 6 6 5 5 5 3
6 1 2 5 7 8 6 3 2 2 3 2 1 1 0 0 1 1 2 2 2 0 1 1 2 2 3 2 1 2 3 3 3 2 2 2 1 1 2 2 1 2 1 1 1 0 1 1 2 1 1 2 2 1 1 1 2 2 3 3 2 2 3 1 2 1 1 1 2 1 3 7 5 2 4 8 8 8 9 8 7 6 6 6 6 6 6 5
3 2 1 5 9 9 5 4 2 1 2 1 1 2 0 1 1 1 1 1 1 0 1 1 2 2 2 2 1 2 3 3 3 2 2 2 1 0 1 3 3 1 2 2 1 2 1 2 2 2 2 2 2 0 2 1 0 1 1 1 0 1 4 4 2 3 1 1 0 2 1 6 5 3 2 5 7 6 7 8 7 6 6 7 6 6 6 6
3 2 1 3 7 7 3 3 1 0 2 1 1 2 1 1 1 1 1 0 1 1 1 1 1 1 1 1 1 2 2 2 4 3 1 1 1 1 2 3 4 3 1 1 1 1 0 2 1 1 2 1 0 1 2 2 1 1 3 2 1 1 3 4 4 2 1 2 2 2 2 7 5 3 4 4 5 5 5 6 7 6 5 5 7 6 6 6
3 3 2 3 3 3 2 2 3 2 2 1 1 2 1 1 1 1 1 2 1 0 1 1 1 1 1 1 2 2 1 0 1 1 0 1 0 2 2 3 3 2 1 1 1 0 1 1 2 1 1 2 2 2 3 2 0 2 3 3 4 3 5 2 1 2 0 5 6 4 3 7 4 2 3 2 2 3 4 5 6 6 5 5 6 6 6 6
4 3 2 2 3 2 2 3 3 4 4 3 2 2 1 0 1 1 0 1 1 0 1 1 1 1 1 2 2 1 1 1 0 1 1 2 0 1 1 3 3 2 2 1 2 1 0 1 2 4 3 3 2 2 3 2 2 3 2 3 5 5 6 3 2 3 2 4 5 5 5 6 4 1 3 4 4 5 6 7 6 6 6 6 6 6 6 6
3 2 1 1 3 3 1 1 3 5 5 4 2 2 4 2 0 0 1 0 1 1 2 1 1 1 1 1 2 1 0 1 2 0 0 1 1 1 1 2 2 1 2 2 3 1 2 0 2 4 5 5 4 3 3 2 2 3 3 4 5 6 6 4 3 4 5 3 3 7 7 6 7 5 7 7 7 7 7 7 7 6 6 6 6 6 6 5
1 2 4 3 1 1 1 1 3 4 4 6 3 3 5 4 2 1 1 1 0 0 1 1 1 3 3 4 3 2 2 2 2 0 1 2 1 2 2 1 1 1 1 2 3 1 2 1 2 2 4 4 4 3 3 2 3 5 5 5 7 7 6 6 6 6 5 5 4 9 7 7 11 9 9 9 9 8 8 8 8 7 7 6 6 7 6 6
1 1 2 2 1 2 1 3 6 4 4 5 2 3 6 5 3 3 1 1 1 1 1 1 4 6 6 6 4 3 3 2 1 3 2 2 2 1 1 1 0 3 2 2 3 2 3 2 2 1 2 2 3 3 3 2 3 3 4 6 8 8 9 11 12 9 6 6 7 5 4 9 11 8 7 9 10 11 10 8 7 7 7 7 7 7 6 7
1 2 2 3 1 3 1 4 8 7 5 5 1 2 6 6 6 4 2 2 1 3 3 3 6 8 7 6 4 4 4 3 2 4 4 4 3 3 1 1 1 2 2 1 1 0 1 2 2 2 2 3 3 3 2 3 3 4 6 7 8 10 13 13 11 10 7 8 10 7 6 11 12 10 9 7 6 8 7 6 7 7 8 8 7 8 7 7
1 1 1 2 3 2 2 3 8 7 4 2 1 3 5 7 8 4 3 5 3 3 5 5 6 7 8 7 5 4 6 5 2 4 6 5 3 4 4 3 3 2 1 1 0 2 1 1 2 2 1 4 2 2 1 2 3 5 7 7 7 9 10 10 9 8 7 11 14 10 9 14 14 9 9 8 4 6 6 7 7 7 8 9 8 8 8 7
1 2 4 4 3 1 1 3 5 5 3 2 4 4 4 7 9 5 3 4 4 5 8 8 5 5 5 7 9 6 3 4 4 3 6 7 4 3 3 3 6 6 3 3 2 0 1 1 1 3 0 3 1 0 2 1 3 6 10 10 11 10 8 9 9 7 9 11 11 7 6 13 12 4 5 7 7 7 7 8 7 7 8 9 9 8 8 8
2 1 3 3 2 1 2 4 4 4 3 4 5 4 3 5 8 8 3 2 2 3 4 6 5 5 4 7 10 6 3 6 5 3 4 5 4 4 4 3 6 7 6 6 3 2 4 3 1 3 1 3 3 1 2 2 4 7 9 10 15 15 10 6 6 9 12 11 7 7 10 10 5 4 5 5 6 8 9 8 7 7 9 9 8 8 8 7
Wind_Direction
78 84 85 83 84 89 93 99 106 107 108 109 111 113 114 118 122 126 125 120 119 116 114 110 107 106 101 93 85 78 70 72 58 49 52 13 352 349 336 349 358 349 358 17 19 64 105 89 86 82 73 63 45 20 14 5 5 85 72 71 73 55 47 48 73 99 115 121 137 158 128 113 128 125 149 209 115 115 131 113 111 92 70 91 109 124 133 143
85 84 81 76 79 88 94 102 109 110 109 109 108 110 112 116 120 123 121 115 114 113 114 115 114 114 106 100 92 80 69 66 53 42 30 3 359 350 347 9 12 0 7 18 11 29 91 91 78 71 64 57 26 9 9 354 18 55 84 73 66 60 54 61 88 106 110 121 128 102 65 111 133 148 170 194 129 143 142 129 158 131 112 125 129 139 145 152
91 87 82 76 78 89 95 99 106 110 108 106 105 109 110 113 118 117 114 111 112 114 117 122 122 118 108 100 86 72 58 57 50 24 1 359 4 357 0 16 20 23 32 27 15 22 48 87 84 72 63 58 32 22 24 350 8 45 76 83 81 84 69 60 82 99 107 119 121 110 64 98 125 144 160 175 147 176 168 150 180 165 165 159 155 161 160 169
96 94 89 82 84 92 98 99 105 109 106 104 106 108 108 111 113 107 107 108 108 114 122 128 124 116 100 70 39 32 30 57 48 349 349 356 360 0 6 19 28 42 52 54 39 23 35 84 88 78 71 70 56 47 39 17 23 52 58 91 105 102 81 55 64 78 102 113 114 130 120 105 113 104 228 189 148 198 167 148 186 174 167 164 166 174 174 183
104 103 97 91 90 96 104 106 106 107 105 105 107 109 108 106 106 103 106 103 99 115 128 125 114 89 52 15 359 347 312 72 12 342 350 354 356 1 11 21 37 49 51 54 31 4 48 82 75 56 57 65 56 52 50 39 74 79 55 88 98 92 91 73 62 30 53 111 120 136 125 111 125 166 247 297 107 263 105 120 150 148 154 163 169 175 181 191
115 110 104 98 96 100 110 112 108 107 108 109 111 112 107 102 106 109 106 97 101 111 117 113 98 85 71 59 65 62 59 114 344 341 348 353 355 3 16 23 48 56 37 21 351 326 89 82 72 66 69 67 56 55 59 43 73 95 68 76 82 84 92 89 73 355 353 99 97 82 111 131 179 173 107 324 354 59 64 94 87 114 146 160 168 174 183 193
123 118 110 106 103 104 110 114 114 113 114 116 117 114 109 111 115 116 111 105 109 109 113 114 105 95 81 73 75 68 73 69 341 340 348 355 358 360 16 32 58 53 18 6 360 54 80 87 90 92 89 79 71 67 69 57 57 90 94 78 79 82 79 83 80 9 23 58 61 50 174 143 239 125 60 281 137 98 82 96 93 104 140 158 166 174 188 198
130 126 118 112 110 108 109 114 118 120 122 121 115 114 114 120 124 123 119 109 107 116 123 119 110 97 83 84 80 66 63 356 335 344 355 360 3 1 19 50 62 48 21 20 25 46 58 86 89 82 84 86 97 98 93 73 53 71 99 98 92 87 83 91 91 63 53 60 51 338 216 88 53 52 301 234 140 128 131 116 122 128 146 170 174 179 190 203
136 132 124 117 115 113 111 112 118 122 122 115 108 110 112 120 124 121 119 101 97 120 128 113 105 103 86 92 91 72 18 340 336 355 11 8 7 13 36 51 52 35 27 31 30 17 349 71 69 70 94 94 92 94 80 68 55 77 104 107 99 96 101 111 97 73 53 70 35 320 154 107 90 85 259 210 142 137 143 138 155 158 177 197 198 194 194 208
141 137 128 122 117 116 116 114 119 119 118 116 111 107 109 116 114 118 113 81 84 116 127 103 108 112 68 42 80 77 346 344 354 10 24 19 11 20 44 45 49 59 59 50 46 52 75 98 96 91 93 84 69 45 21 72 114 112 105 102 101 105 104 109 101 89 48 73 16 318 358 119 121 125 254 181 136 135 147 159 167 173 195 198 209 211 205 214
146 142 135 130 119 118 121 124 127 123 124 122 114 108 110 117 115 120 103 78 92 103 105 92 103 113 78 66 77 75 345 355 9 17 33 30 24 36 44 47 65 87 89 67 52 64 85 102 108 101 90 82 78 60 53 90 117 116 112 102 102 116 113 130 118 115 210 87 3 324 326 182 132 193 237 147 137 148 160 174 174 188 208 202 206 214 214 219
149 146 144 137 124 123 129 137 138 131 131 124 115 111 112 119 116 115 102 95 101 102 109 102 104 110 83 65 55 31 4 16 18 22 44 41 30 41 53 69 92 100 100 79 50 57 78 119 116 92 115 127 100 78 91 118 123 134 134 106 121 141 119 146 123 117 224 49 51 16 326 243 185 225 189 135 147 160 170 186 181 195 214 214 204 206 213 219
147 146 145 136 125 124 134 144 141 135 133 123 114 110 112 113 104 107 106 104 106 109 117 114 114 110 86 61 16 22 31 37 33 36 57 56 41 45 62 81 97 98 97 87 69 63 74 99 97 86 92 114 94 106 138 141 138 160 150 113 147 153 113 138 119 135 202 161 155 102 6 240 199 208 152 138 161 162 184 204 191 196 208 220 210 201 207 215
143 143 139 131 118 113 131 140 138 136 129 117 113 110 109 106 103 110 111 107 108 107 107 106 107 96 82 73 24 32 37 41 43 44 52 59 52 51 61 73 88 93 93 93 87 79 83 91 90 84 60 77 112 128 126 134 182 149 115 137 181 137 118 160 119 161 203 200 204 153 18 188 173 174 148 156 167 161 190 211 207 205 199 211 210 203 207 215
140 140 134 121 109 114 130 135 134 132 123 115 112 109 107 105 105 109 109 110 103 95 97 93 89 91 80 64 38 28 36 43 38 37 40 50 49 45 55 64 78 85 89 91 88 87 92 85 79 78 68 89 132 128 120 156 186 123 90 150 203 128 137 160 94 47 55 186 206 181 314 328 144 153 156 167 169 171 197 213 213 213 205 206 203 204 210 220
140 137 131 118 114 122 130 132 131 127 121 118 113 108 107 104 103 103 102 108 101 84 89 78 79 98 95 38 48 28 34 37 20 28 39 43 39 29 42 59 75 82 84 84 82 81 79 75 67 94 113 130 157 128 138 137 122 184 166 103 82 94 151 186 357 51 52 70 196 186 289 318 131 149 162 172 176 182 202 221 221 215 210 205 200 204 206 217
141 135 128 123 123 127 131 130 128 125 123 122 117 111 110 105 104 102 92 94 95 98 100 83 76 88 78 348 47 30 18 15 6 23 30 18 18 13 18 51 76 73 76 65 61 51 52 64 51 141 114 53 347 75 139 90 53 229 206 116 51 54 147 182 16 188 244 248 211 180 225 285 231 166 173 184 184 186 203 223 233 229 217 205 199 205 210 215
142 136 129 127 129 130 131 130 127 124 122 121 116 110 108 107 105 92 78 94 105 104 102 74 53 71 54 297 63 25 338 358 14 19 11 357 3 12 9 30 333 329 321 4 23 12 14 55 163 93 64 27 16 358 83 117 338 2 11 43 46 41 90 103 131 215 264 214 226 197 218 269 257 173 176 193 188 191 207 215 228 238 229 215 204 207 217 221
143 136 132 131 131 131 131 129 126 123 121 120 116 113 111 106 97 71 53 64 83 95 96 10 356 85 95 110 78 7 353 9 21 13 3 352 349 345 340 326 262 300 297 274 9 358 1 34 54 65 35 19 22 10 51 80 317 339 322 340 22 47 62 72 115 79 339 224 241 232 229 270 274 201 187 191 187 194 212 215 223 236 237 232 219 214 217 219
143 136 135 134 133 132 130 129 129 128 127 125 119 117 122 106 85 48 37 50 60 82 89 352 1 104 67 61 2 355 10 30 40 15 1 349 338 331 317 274 248 19 33 294 346 321 42 63 52 50 27 0 4 353 348 297 278 296 298 299 38 61 78 90 91 125 79 348 246 232 260 274 278 263 195 171 174 194 212 219 224 227 231 237 232 230 227 222
142 138 135 135 136 135 132 134 135 135 135 129 113 62 147 52 83 140 54 60 66 69 81 74 89 91 69 48 12 9 25 44 41 15 3 348 335 339 300 236 39 39 36 251 262 311 47 72 56 37 23 328 319 310 311 301 283 294 307 307 47 62 57 54 53 154 118 46 226 14 313 273 250 3 110 140 163 199 209 214 222 224 224 228 231 235 235 232
143 142 138 138 139 135 133 135 137 140 139 118 46 32 49 74 118 134 129 99 62 44 69 99 89 80 67 52 26 19 50 26 354 10 4 351 348 311 290 24 71 97 23 331 329 43 48 71 68 36 357 299 272 261 281 295 312 320 321 330 18 61 22 46 47 255 152 172 327 22 340 277 140 95 119 154 186 206 200 204 213 217 223 224 223 227 233 239
148 145 142 141 139 132 127 131 138 140 132 78 81 108 111 110 120 128 118 108 72 28 42 44 44 43 34 39 19 11 55 45 329 352 358 353 349 231 318 37 73 96 10 9 68 103 80 84 55 17 321 307 263 255 307 273 300 9 12 14 11 23 23 67 26 256 212 210 303 344 326 275 124 93 182 210 213 214 174 200 241 229 230 234 244 267 273 261
151 147 145 144 139 129 121 128 141 137 144 144 126 124 126 125 127 130 115 107 90 31 30 19 40 44 25 15 10 14 71 67 339 319 349 356 335 299 1 51 66 56 24 41 80 94 97 78 8 302 260 297 298 47 17 3 85 36 27 49 22 358 3 274 301 290 236 206 251 306 328 280 161 105 251 238 236 267 198 197 256 255 244 255 294 304 280 260
148 149 148 147 142 128 123 118 96 114 123 130 131 130 134 137 128 63 78 100 77 26 355 12 70 47 19 2 10 27 105 76 40 300 337 3 349 307 59 42 52 46 1 62 85 83 73 70 320 292 250 287 335 58 27 7 60 35 14 26 349 332 327 303 310 326 9 318 249 182 50 284 236 99 154 189 150 227 196 193 232 237 224 217 246 259 249 241
142 148 151 153 152 141 137 114 115 123 115 118 137 138 138 144 43 1 38 87 63 335 332 17 61 9 2 4 8 33 105 279 295 318 339 3 350 242 95 350 51 79 5 65 90 87 79 163 233 291 279 291 73 75 3 344 43 352 299 324 312 311 315 312 319 336 95 240 247 136 121 234 304 67 125 187 148 160 176 192 207 191 174 181 208 229 241 262
141 147 154 162 169 163 179 169 144 128 110 143 147 137 138 142 1 358 44 74 19 279 9 64 318 357 13 350 343 35 79 276 307 4 351 0 344 237 93 4 50 81 46 82 81 14 79 173 244 276 279 311 99 97 344 353 65 203 253 296 308 317 320 333 342 291 238 246 261 58 112 167 280 239 196 201 136 131 142 149 132 121 125 142 181 151 123 329
151 150 153 164 174 174 350 147 148 121 123 153 147 131 134 13 2 6 73 97 288 276 49 95 133 56 51 316 342 103 156 278 350 339 334 6 1 26 78 26 88 100 56 116 146 281 349 52 25 314 347 30 113 141 340 346 88 118 297 301 311 338 332 335 333 280 276 57 290 321 23 123 236 258 208 157 91 70 42 112 132 128 118 116 99 91 102 231
162 159 156 162 173 173 120 149 149 122 144 149 138 125 24 24 25 43 70 212 231 342 358 98 121 57 167 242 37 85 160 23 15 297 317 12 16 40 84 71 115 106 44 36 120 166 17 47 354 325 55 95 155 150 358 353 119 283 309 293 273 303 297 270 291 288 338 71 260 316 10 93 228 280 240 82 75 64 339 38 115 102 93 84 59 49 28 18
172 171 168 166 166 161 150 157 157 144 153 151 117 90 33 31 68 62 44 234 139 237 310 118 162 14 230 176 48 20 40 56 336 309 321 30 21 28 79 190 120 102 53 46 73 100 105 13 312 19 53 60 109 128 52 22 338 297 305 296 267 273 275 224 236 280 16 347 251 289 16 93 152 279 266 111 140 169 248 286 84 72 67 70 54 32 25 20
182 181 179 173 167 166 158 166 175 163 164 162 102 60 39 40 70 86 211 237 83 218 280 26 260 335 201 160 71 41 73 58 334 348 6 29 21 31 63 11 58 79 57 54 55 98 153 103 348 75 358 345 84 152 93 32 355 349 323 338 22 3 342 1 317 6 66 263 235 128 19 77 152 260 230 145 157 156 181 238 64 40 40 60 46 27 22 6
188 187 185 187 190 183 179 180 174 172 176 176 81 335 87 55 37 165 216 297 14 195 179 70 265 270 171 99 63 39 123 54 343 25 53 352 42 56 77 168 160 59 10 12 42 331 133 29 184 137 320 292 270 138 22 335 174 20 355 32 50 35 6 18 296 355 154 247 231 94 29 312 215 230 168 150 159 152 154 150 111 26 320 9 29 12 333 348
185 184 182 192 199 193 198 187 171 176 182 186 299 319 99 61 244 161 129 294 292 231 90 57 75 75 69 95 71 340 115 257 307 48 331 350 45 11 279 212 183 156 202 140 90 294 331 314 226 141 66 260 295 106 102 307 166 218 24 64 77 109 29 301 267 343 236 266 285 62 23 270 274 254 160 156 160 151 146 140 146 195 237 291 296 280 285 79
175 177 183 189 193 194 190 171 167 172 174 176 310 22 87 144 229 149 133 207 270 255 331 48 108 76 39 78 161 217 123 290 309 46 35 9 40 298 246 229 230 210 139 106 122 186 195 277 262 58 290 261 330 103 160 178 177 243 142 103 116 149 154 221 247 260 239 279 317 347 26 172 210 245 175 147 142 145 144 150 166 206 218 228 243 248 343 80
165 171 178 170 162 165 159 154 159 160 157 158 14 69 124 211 197 162 179 173 188 188 121 341 150 115 42 38 215 236 154 270 322 21 83 129 188 222 209 200 204 175 126 132 199 154 155 267 240 186 257 266 357 333 56 108 190 281 85 92 119 184 150 158 186 210 198 325 313 270 244 197 169 201 153 128 137 156 156 170 191 216 215 205 199 159 99 81
154 155 149 140 140 148 149 149 154 156 152 139 95 163 212 224 160 134 161 154 154 153 137 125 160 149 184 196 332 314 77 131 303 30 77 193 232 223 169 158 189 134 129 147 163 82 113 279 231 187 288 347 39 324 12 132 190 337 58 130 243 183 120 115 331 327 79 317 275 230 263 260 38 333 175 144 164 182 180 199 201 194 190 173 157 145 128 106
146 140 128 130 139 150 152 150 154 158 156 124 133 196 207 192 230 316 357 125 146 147 139 138 179 187 181 174 224 193 115 348 195 111 218 233 257 197 155 156 341 48 112 138 160 177 141 223 246 232 306 326 49 1 325 176 144 102 133 252 267 111 106 105 34 340 10 254 262 219 248 240 190 286 213 176 200 204 192 195 187 177 179 174 169 163 148 128
143 129 117 133 148 158 155 146 150 150 128 97 174 242 149 147 287 343 2 339 152 149 155 163 167 168 165 169 184 155 131 163 171 160 213 211 251 164 137 156 339 26 74 68 39 207 136 144 269 304 304 222 90 21 314 295 154 164 213 270 322 112 150 133 112 308 261 260 272 288 302 241 204 205 197 197 209 204 186 181 183 187 184 177 174 162 139 112
144 128 118 158 160 161 158 156 157 138 98 128 201 245 163 95 344 25 8 323 254 127 157 196 130 56 162 161 147 144 152 164 165 177 224 190 226 359 98 159 331 39 338 46 81 194 112 112 263 293 268 221 48 106 223 260 238 226 312 334 352 152 181 185 165 167 174 221 274 309 350 270 234 203 183 192 200 189 178 182 191 190 179 173 168 150 130 116
151 130 160 183 172 164 160 160 156 93 89 140 198 217 217 60 100 65 28 348 335 102 151 228 126 136 191 178 161 164 157 155 166 182 228 184 193 1 26 84 130 155 283 353 68 141 60 93 237 291 303 263 223 211 190 169 156 134 104 168 220 60 107 202 207 136 151 191 261 300 299 265 259 208 175 182 188 179 172 178 188 183 173 169 156 142 138 134
161 120 172 182 170 163 151 109 63 78 104 124 105 115 211 270 119 90 50 30 13 354 287 16 92 145 162 172 245 195 150 168 197 204 223 209 195 7 6 17 90 160 175 28 357 257 94 130 162 171 264 250 223 241 40 100 155 155 162 179 179 140 123 125 298 280 139 164 198 184 274 265 271 304 169 163 163 169 165 163 173 180 177 167 151 145 144 135
159 130 173 181 174 172 145 68 34 82 107 141 134 86 125 246 118 120 131 36 15 323 313 19 72 122 151 165 210 166 144 169 191 202 234 208 147 37 335 330 318 296 117 114 241 234 158 105 112 163 220 215 198 90 25 8 161 165 212 205 158 150 139 143 219 243 172 32 217 128 270 265 274 341 41 128 140 155 156 154 165 183 182 163 148 141 132 126
142 129 78 163 180 182 127 62 328 58 77 154 227 44 14 242 90 105 203 158 69 34 18 6 33 71 159 137 120 161 174 182 180 185 220 128 90 308 309 332 326 328 52 114 178 233 164 114 115 266 285 277 207 333 325 339 50 279 257 226 172 187 147 148 175 176 157 200 165 104 272 266 277 355 25 68 105 128 148 162 172 186 190 159 144 136 124 125
115 101 59 109 167 192 137 136 174 145 112 134 87 55 342 283 77 108 199 165 158 308 118 172 346 44 97 86 104 162 208 200 204 217 166 86 41 280 309 357 9 20 48 129 177 291 259 169 142 150 310 320 327 320 303 310 188 244 243 182 177 149 106 110 158 94 299 219 175 144 241 256 267 3 15 30 112 157 192 202 189 189 197 168 141 133 132 138
112 67 36 85 70 69 158 182 147 128 133 125 102 128 176 291 33 349 282 127 114 12 110 142 278 71 73 65 80 68 9 60 348 331 61 71 41 258 346 8 12 37 47 346 304 308 269 178 156 153 177 214 233 247 249 227 209 238 210 170 188 168 144 153 128 112 235 230 176 174 230 261 288 273 248 247 217 213 222 210 197 199 196 169 144 138 144 151
138 92 102 71 15 36 127 221 115 119 143 145 133 181 166 151 154 311 328 90 104 70 103 107 278 129 103 107 116 142 261 48 50 4 120 106 113 295 349 10 6 36 59 338 306 329 66 329 217 187 198 201 195 212 213 149 150 195 199 185 190 190 184 164 123 174 196 170 196 223 228 275 287 243 227 236 218 216 224 206 196 204 197 176 157 150 156 168
163 162 159 155 346 5 11 317 138 123 160 172 169 171 164 153 126 103 331 331 48 20 119 121 191 186 171 157 150 176 181 90 59 207 192 132 110 324 296 313 19 154 170 313 310 46 90 291 267 223 226 207 175 188 181 144 186 192 189 194 192 190 185 176 196 211 163 128 248 250 219 244 265 241 216 225 216 212 220 208 199 197 188 177 159 153 168 180
198 154 141 129 158 165 207 212 171 131 143 170 155 136 153 154 161 179 227 8 343 247 176 195 232 219 200 174 157 155 148 123 205 206 152 129 144 137 288 298 120 153 150 340 328 78 120 244 261 183 251 222 152 158 160 173 226 216 197 199 188 179 183 195 215 219 176 179 236 252 197 223 252 249 226 223 213 209 211 200 182 167 161 161 157 164 183 185
100 83 27 359 66 151 166 166 151 138 148 160 138 154 165 174 187 186 127 101 280 243 185 216 233 213 209 205 171 155 168 171 216 214 174 145 160 158 161 260 198 155 127 77 318 356 131 220 209 136 270 255 173 144 172 210 239 251 236 214 190 189 198 207 223 229 230 246 257 268 272 263 259 247 241 244 212 194 187 156 143 151 158 165 170 179 191 185
152 151 136 57 61 76 38 109 136 146 156 152 197 198 179 181 185 174 140 156 181 191 181 216 223 187 191 210 201 198 202 177 160 202 174 146 166 197 193 187 153 139 177 150 164 316 289 210 160 111 311 276 184 117 239 245 253 255 250 232 201 199 210 223 238 239 244 260 263 269 282 279 268 237 227 238 190 142 150 155 164 173 169 169 177 186 192 183
159 162 151 117 96 122 102 110 131 142 150 186 207 194 189 197 187 164 172 193 167 158 182 201 193 152 162 204 217 228 218 129 114 176 172 155 170 193 188 168 139 137 179 184 145 13 165 171 85 89 345 276 276 201 233 330 337 278 263 242 210 198 204 215 219 210 206 224 245 256 258 264 264 212 188 220 187 165 187 190 187 190 175 173 185 191 191 178
136 147 174 120 95 192 160 125 133 151 175 196 186 171 186 196 168 148 163 240 88 110 187 197 167 135 146 202 221 220 143 115 113 115 130 130 114 95 88 106 126 138 165 166 146 166 165 159 151 133 171 273 289 253 195 36 337 274 254 227 204 199 207 220 227 223 212 203 204 214 227 245 243 142 159 209 194 198 217 207 194 193 181 181 189 188 184 170